Погода в Санском

Россия / Рязанская область     54°22′40″N   40°45′51″E
темп.,
°C
ветер,
м/с
пор.,
м/с
влажн.,
%
обл.,
%
осадки,
мм/ч
давл.,
гПа
погр.,
м
10 августа, ср
ср1000:00+16ссв3595100 0.6 1020127
03:00+16ссв3395100 1.8 102085
06:00+17с1193100 0.7 102165
09:00+18ссв3389100 1.4 1020275
12:00+18ссв2390100 0.4 1022324
15:00+21ссв5574100 0.5 1021797
18:00+20ссв4675100 0.0 1021541
21:00+17ссв369069 0.0 1022191
11 августа, чт
чт1100:00+15ссв349596 0.0 102382
03:00+14ссв369476 0.0 1023121
06:00+14св3883100 0.0 1024207
09:00+20всв5853100 0.0 1024573
12:00+25св553529 0.0 10241481
15:00+26св44325 0.0 10231720
18:00+25ссв45360 0.0 1022783
21:00+17св35530 0.0 102357
12 августа, пт
пт1200:00+15всв33680 0.0 102429
03:00+13св22750 0.0 102416
06:00+14св23720 0.0 102546
09:00+21св33450 0.0 1025556
12:00+25ссв323155 0.0 10241468
15:00+27ссв32272 0.0 10221651
18:00+26с23330 0.0 1022220
21:00+18с22490 0.0 102312
13 августа, сб
сб1300:00+16св22560 0.0 102314
03:00+14св22632 0.0 102311
06:00+15св226313 0.0 102437
09:00+23в22405 0.0 1023444
12:00+28всв222882 0.0 10221530
15:00+29всв2225100 0.0 10211812
18:00+27в2333100 0.0 102166
21:00+21в2243100 0.0 102114
14 августа, вс
вс1400:00+18в344898 0.0 102144
03:00+18вюв3355100 0.0 102138
06:00+18в355493 0.0 1021108
09:00+24вюв464192 0.1 1021488
12:00+27вюв4533100 0.3 10201118
15:00+30в332783 0.3 10191773
18:00+26ссв3437100 0.0 101872
21:00+23всв354595 0.0 101892